Flag for India Weather past 2 weeks in Panipat, Haryana, India

63 °F


Feels Like: 63 °F
Forecast: 54 / 79 °F
Wind: No wind

Location: New Delhi Palam Airport

Current Time: Nov 26, 2015 at 12:51:30 AM

Latest Report: Nov 26, 2015 at 12:30 AM

Visibility: 1 mi

Pressure: 29.98 "Hg

Humidity: 56%

Dew point: 46 °F

Location of PanipatLocation

Historic Weather in Panipat — Graph


Panipat temperature yesterday

Maximum temperature yesterday: 81 °F (at 1:00 PM)
Minimum temperature yesterday: 55 °F (at 5:30 AM)
Average temperature yesterday: 67 °F

Past Weeks' High & Low Weather Summary

High90 °F (Nov 15, 4:00 PM)88% (Nov 21, 12:30 AM)30.12 "Hg (Nov 21, 12:30 AM)
Low54 °F (Nov 18, 6:00 AM)21% (Nov 22, 3:30 PM)29.86 "Hg (Nov 14, 2:30 PM)
Average70 °F53%29.98 "Hg
* Reported Nov 10 11:30 PM — Nov 25 11:30 PM, Panipat, Weather by CustomWeather, © 2015

Note: Actual official high and low records may vary slightly from our data, if they occured in-between our weather recording intervals... More about our weather records


Panipat weather history for previous 24 hours

Time TempWeatherWind HumidityBarometerVisibility
11:30 PM
Wed, Nov 25
63 °FHaze.No wind59%29.98 "Hg1 mi
11:00 PM63 °FHaze.No wind59%29.98 "Hg1 mi
10:30 PM64 °FHaze.3 mph56%29.98 "Hg1 mi
10:00 PM64 °FHaze.5 mph56%29.98 "Hg1 mi
9:00 PM66 °FHaze.5 mph52%29.98 "Hg2 mi
8:30 PM68 °FHaze.5 mph49%29.98 "Hg2 mi
7:30 PM70 °FPassing clouds.5 mph46%29.95 "Hg2 mi
7:00 PM72 °FPassing clouds.5 mph41%29.95 "Hg2 mi
6:30 PM72 °FPassing clouds.5 mph41%29.95 "Hg2 mi
6:00 PM73 °FPassing clouds.6 mph38%29.95 "Hg2 mi
5:30 PM75 °FScattered clouds.6 mph36%29.95 "Hg2 mi
5:00 PM77 °FScattered clouds.7 mph34%29.95 "Hg2 mi
4:30 PM81 °FScattered clouds.9 mph28%29.95 "Hg2 mi
4:00 PM81 °FScattered clouds.10 mph28%29.95 "Hg2 mi
3:30 PM81 °FScattered clouds.10 mph28%29.95 "Hg2 mi
3:00 PM81 °FScattered clouds.12 mph28%29.95 "Hg2 mi
2:30 PM81 °FScattered clouds.12 mph28%29.95 "Hg2 mi
2:00 PM81 °FScattered clouds.10 mph26%29.95 "Hg2 mi
1:30 PM81 °FHaze.14 mph26%29.95 "Hg2 mi
1:00 PM81 °FHaze.13 mph26%29.98 "Hg2 mi
11:30 AM75 °FHaze.10 mph39%30.01 "Hg1 mi
11:00 AM72 °FHaze.10 mph44%30.01 "Hg1 mi
10:30 AM68 °FClear.8 mph53%30.04 "Hg1 mi
10:00 AM66 °FClear.7 mph56%30.04 "Hg1 mi
9:00 AM63 °FClear.7 mph64%30.04 "Hg1 mi
8:30 AM61 °FFog.6 mph68%30.04 "Hg1 mi
7:30 AM55 °FFog.3 mph82%30.01 "Hg1 mi
7:00 AM55 °FFog.5 mph82%30.01 "Hg1 mi
6:30 AM55 °FFog.5 mph82%29.98 "Hg1 mi
5:30 AM55 °FFog.No wind82%29.98 "Hg1 mi
5:00 AM57 °FClear.5 mph72%29.98 "Hg1 mi
4:30 AM57 °FClear.6 mph72%29.98 "Hg1 mi
4:00 AM57 °FClear.5 mph72%29.98 "Hg1 mi
3:30 AM57 °FClear.No wind72%30.01 "Hg1 mi
3:00 AM59 °FClear.No wind68%30.01 "Hg1 mi
2:00 AM61 °FClear.No wind63%30.01 "Hg1 mi
1:30 AM61 °FClear.3 mph63%30.01 "Hg1 mi
1:00 AM61 °FClear.3 mph63%30.01 "Hg1 mi
12:30 AM61 °FClear.3 mph63%30.01 "Hg1 mi
12:00 AM63 °FClear.3 mph59%30.01 "Hg1 mi
Weather by CustomWeather, © 2015

See weather overviewHow to use our weather pages